Location: Rancho Del Sol Observatory
(38.7214°N, 120.6350°W)
Time: 12:48:35
(UTC-08:00)

A-11 Canister half - Pass Details

Date: 31 January 2020
Orbit: 1517 x 1683 km, 47.2° (Epoch: 22 February)

Event Time Altitude Azimuth Distance (km) Brightness Sun altitude
Exits shadow 04:45:05 53° 257° (WSW) 1,812 8.9 -28.3°
Maximum altitude 04:46:40 59° 221° (SW) 1,718 8.9 -28.0°
Drops below altitude 10° 04:55:44 10° 144° (SE) 3,706 11.4 -26.3°
Sets 04:58:52 0° 141° (SE) 4,705 12.1 -25.7°
